User: anonymous   Login
Location: Caltech
(34.1382°N, 118.1253°W)
Time: 08:35:25
(UTC-08:00)
Language:

Gbstr 26 Del rocket - Orbit

View from above orbital plane
View from above orbital plane
View from above satellite
View from above satellite

Ground track
Ground track

The orbit data is extracted from the following two-line orbital elements,

1 25876U 99041E   16340.22108388 -.00000089  00000-0  25349-4 0  9992
2 25876  51.7662   2.0430 0532408 182.7428 177.0547 14.03962045887367
Epoch (UTC): 05 December 2016 05:18:21
Eccentricity: 0.0532408
inclination: 51.7662°
perigee height: 493 km
apogee height: 1266 km
right ascension of ascending node: 2.0430°
argument of perigee: 182.7428°
revolutions per day: 14.03962045
mean anomaly at epoch: 177.0547°
orbit number at epoch: 88736

The dashed part of the orbit path shows where the satellite is in the earth's shadow,  

DLR